YZ-1 R/B, 44866

Orbit data source: Space-Track

YZ-1 R/B, 44866 is space debris originally from a launch on Mon, 16 Dec 2019 UTC launched from the Xichang Space Center, China (XSC). Debris objects in space refer to the collection of defunct objects orbiting the Earth. Examples of debris include non-operational satellites, rocket bodies, and fragments generated from explosions, collisions, or faulty payload assembly.

Loading next visibility...
Identifier
44866, 2019-090C
Orbit
Active
Country
Flag of CNCN / PRC
Related business
Manufacturer
CALT
Mission
Spacecraft
Bus & Motor
YZ-1, Unknown motor
Mass
~2,075 kg wet, ~2,075 kg dry
Launch date (UTC)
2019-12-16 (7 years ago)
Launch vehicle
Unknown
Launch site
Xichang Space Center, China (XSC)
Object type
Payload
Rocket body
Debris
Shape & HBR
Double Cone, 2.0 m
Radar Cross Section
5.890 m², Large (>1 m²)

Expand to show TLE details & history
Last TLE update: 2 days ago

TLE from 2 days ago
0 YZ-1 R/B
1 44866U 19090C   26171.11704959 -.00000059  00000-0  00000+0 0  9994
2 44866  56.3860  69.4429 0071424  40.4513 320.1097  1.78363943 42425
Epoch: 2026-06-20T02:48Z
TLE epoch observation values (Epoch: 2026-06-20T02:48:33.084Z)
Latitude
0.00005°
Longitude
118.9837°
Altitude
22,185.917 km
Speed
3.746 km/s
True Right ascension
04h 37m 49s
True Declination
0° 00' 00"
Sunlit
Object was in daylight at epoch
Visualization orbit readout
Latitude
Unknown
Longitude
Unknown
Altitude
Unknown
Speed
Unknown
Apparent Right ascension
Unknown
Apparent Declination
Unknown
Sunlit
N/A
Visualization observer readout
Local Sidereal Time
21:39:34
Azimuth
Unknown
Elevation
Unknown
Doppler factor
Unknown
Orbital elements
Apogee altitude
22,547.794 km
Perigee altitude
22,137.523 km
Semi-major axis
28,720.795 km
Eccentricity
0.00714
Inclination
56.386°
RAAN
69.4429°
Arg. of periapsis
40.4513°
True anomaly
319.58119°
Mean anomaly
320.1097°
Eccentric anomaly
319.84581°
Mean motion
0.44591 °/min
Orbital period
807.34 mins
BSTAR
0
Loading maneuver chart data...
Computing Atmospheric mass density...
Loading historical data...
Loading historical data...
Loading historical data...
Loading historical data...
Loading historical data...
Loading historical data...
Loading historical data...
Other satellites on launch #90 in the year 2019 (2019-12-16 UTC)

Documentation

Showing up to 5 results
|